Regional Weather Roundup
Issued by NWS

Home | Current Version | Previous Version | Graphics & Text | Print | Product List | Glossary Off
Versions: 1 2 3 4 5 6 7 8 9 10 11 12 13 14 15 16 17 18 19 20 21 22 23 24 25 26 27 28 29 30 31 32 33 34 35 36 37 38 39 40 41 42 43 44 45 46 47 48 49 50

000
ASUS43 KTOP 202308
RWRKS

WEATHER ROUNDUP FOR KANSAS
NATIONAL WEATHER SERVICE GOODLAND KS
500 PM CST SAT DEC 20 2014

NOTE:  "FAIR" INDICATES FEW OR NO CLOUDS BELOW 12,000 FEET WITH NO
SIGNIFICANT WEATHER AND/OR OBSTRUCTIONS TO VISIBILITY.

KSZ001>006-013>018-027>032-041>047-210000-
NORTHWEST KANSAS

CITY           SKY/WX    TMP DP  RH WIND       PRES   REMARKS
GOODLAND       MOCLDY    49  28  44 CALM      29.97S
HAYS           MOCLDY    46  34  61 S10       30.01S
HILL CITY      CLOUDY    50  33  52 S7        29.98S
RUSSELL        MOCLDY    47  42  83 S9        30.00R
$$

KSZ061>065-074>080-084>089-210000-
SOUTHWEST KANSAS

CITY           SKY/WX    TMP DP  RH WIND       PRES   REMARKS
DODGE CITY     PTCLDY    38  34  85 SW9       30.04R
ELKHART          N/A    N/A N/A N/A MISG        N/A
GARDEN CITY    MOCLDY    42  36  79 S10       30.00R
GREAT BEND     PTCLDY    48  39  71 S8        30.04R
LIBERAL        MOCLDY    46  36  66 S5        30.03S
PRATT          PTCLDY    43  36  75 S10       30.07R
$$

KSZ066>073-081>083-090>101-210000-
SOUTHEAST KANSAS

CITY           SKY/WX    TMP DP  RH WIND       PRES   REMARKS
CHANUTE        PTCLDY    42  36  79 S10       30.14S
COFFEYVILLE    PTCLDY    42  34  73 S8        30.17S
HUTCHINSON     CLOUDY    45  36  70 S13       30.08R
MEDICINE LODGE   N/A     44  38  79 S13       30.08R
NEWTON         CLOUDY    45  34  65 S17       30.09S
PARSONS        CLEAR     43  35  73 S7        30.17R
WICHITA INTL   CLOUDY    45  36  70 S18G24    30.09S
WICHITA JABRA  CLOUDY    43  35  73 S18       30.09S
WICHITA MCCONL CLOUDY    44  36  74 S15       30.09F
WINFIELD       CLOUDY    45  36  70 S10       30.12F
$$

KSZ007>012-019>026-033>040-048>060-102>105-210000-
NORTHEAST KANSAS

CITY           SKY/WX    TMP DP  RH WIND       PRES   REMARKS
CONCORDIA      MOCLDY    38  35  89 S6        30.03S
EMPORIA        CLEAR     43  36  76 S7        30.09R
LAWRENCE       CLOUDY    44  38  79 S8        30.11S
MANHATTAN      CLEAR     44  40  85 S6        30.07R
MARYSVILLE     MOCLDY    36  36 100 SE3       30.06S FOG
OLATHE IND     CLOUDY    42  37  82 S10       30.12S
OLATHE EXE     CLOUDY    43  37  79 S10       30.11S
SALINA         PTCLDY    47  40  76 S10       30.06R
TOPEKA BILLARD CLOUDY    48  39  71 S6        30.10R
TOPEKA FORBES  PTCLDY    47  38  71 S8        30.09R
$$


USA.gov is the U.S. government's official web portal to all federal, state and local government web resources and services.